CAPSAT (49276 NORAD) Tracking and Keplerian Element Data

This shows tracking and keplerian element data for the satellite.

Feedback or suggestion? Click here.




ElementValue
Catalog49276
NameCAPSAT
Epoch Orbit854
Epoch Day339.92460548
Epoch Year2021
RAAN212.8952
Inclination51.6399
Eccentricity0.0003741
Argument of Perigee334.5261
Mean Anonmoly25.5544
Mean Motion15.51263664
Decay Rate0.0001395
L11 49276U 98067SV 21339.92460548 .00013950 00000+0 24099-3 0 9998
L22 49276 51.6399 212.8952 0003741 334.5261 25.5544 15.51263664 8542

Live tracking and technical data element details for CAPSAT (NORAD 49276). CAPSAT can be tracked NOW for your location showing map with azimuth and elevation plus other details from your city location.

Track the satellite on the map from your city or location and see movement details for azimuth, elevation, latitude, longitude, range, height, and movement on the map or in text.







IsCatalogInMostPopularTable: catalog: 49276, numindb: 5
Update: records affected: 1



GetName: 49276 CAPSAT

Hit Count: updated at: Mon, 06 Dec 2021 15:26:42 GMT